1998-067RZ

Last updated on Wed Mar 24 2021 00:02:13 GMT+0000 (Coordinated Universal Time)

1 47853U 98067RZ 21082.27586037 .00002518 00000-0 53596-4 0 9996 2 47853 51.6439 47.6336 0003301 125.6778 234.4518 15.49141866 1901
UTC large
Height (km)
Speed (km/s)
/
Latitude / Longitude
Inclination (degrees)
Orbital Period (minutes)
Azimuth
Elevation
Range (km)
Doppler Factor

Next 0 passes for location: London (51.5072 / 0.1276)

Sorry there are no passes over London.